Location: Newark
(5.5500°N, 0.2500°W)
Time: 05:31:07
(UTC+00:00)

Hubble Space Telescope - Pass Details

Date: 27 September 2019
Orbit: 536 x 540 km, 28.5° (Epoch: 21 October)

Event Time Altitude Azimuth Distance (km) Brightness Sun altitude
Exits shadow 05:04:04 17° 287° (WNW) 1,385 2.3 -12.1°
Maximum altitude 05:07:05 60° 211° (SSW) 607 0.9 -11.4°
Drops below altitude 10° 05:11:08 10° 130° (SE) 1,775 4.2 -10.4°
Sets 05:13:25 0° 126° (SE) 2,666 5.3 -9.8°
